Tracking 25620 objects as of 18-May-2022
HD Live streaming from Space Station
objects crossing your sky now

COSMOS 1771 FUEL CORE

Track COSMOS 1771 FUEL CORE now!
10-day predictions


NORAD ID: 17035
Int'l Code: 1986-062C
Perigee: 924.6 km
Apogee: 972.2 km
Inclination: 65.0 °
Period: 103.9 minutes
Semi major axis: 7319 km
RCS: 0.1808 m2 (medium)
Launch date: August 20, 1986
Source: Commonwealth of Independent States (former USSR) (CIS)
Launch site: TYURATAM MISSILE AND SPACE COMPLEX (TTMTR)

Note: This is SATELLITE DEBRIS
aabbcc
Your satellite tracking list
Your tracking list is empty




NASA's NSSDC Master Catalog

Two Line Element Set (TLE):
1 17035U 86062C   22137.89503189 -.00000073  00000-0  13718-4 0  9991
2 17035  64.9954  34.4355 0032527   7.9674  68.7776 13.86401904801872
Source of the keplerian elements: AFSPC